ONEWEB-0690, 61598

Orbit data source: Space-Track

ONEWEB-0690, 61598 is a payload satellite owned by Eut. One Web (UK) in LEO that was launched on Sun, 20 Oct 2024 UTC via an FALCON 9 launch vehicle from the Air Force Western Test Range (AFWTR). Payload-class satellites include a variety of spacecraft equipped with specific instruments for various scientific and technological missions. These include communications satellites like Starlink; space stations such as the ISS; scientific satellites like the Hubble; Earth observation satellites from companies like Planet Labs, Umbra, and HawkEye 360; GPS; miniature CubeSats for education and research; and military/defense satellites.

Loading next visibility...
Identifier
61598, 2024-188E
Orbit
LEO
Country
Flag of UKUK
Related business
Manufacturer
One Web
Mission
Operational Commercial Communications
Bus & Motor
ARROW, Unknown motor
Mass
148 kg wet, ~140 kg dry
Launch date (UTC)
2024-10-20 (2 years ago)
Launch vehicle
FALCON 9
Launch site
Air Force Western Test Range (AFWTR)
Object type
Payload
Rocket body
Debris
Shape & HBR
Trap Box + 2 Pan, 6.7 m
Radar Cross Section
3.464 m², Large (>1 m²)

Expand to show TLE details & history
Last TLE update: 10 hours ago

TLE from 10 hours ago
0 ONEWEB-0690
1 61598U 24188E   26265.70823970  .00000241  00000-0  64555-3 0  9994
2 61598  87.8974   1.6839 0002047  84.6695 275.4666 13.11418173 97419
Epoch: 2026-09-22T16:59Z
TLE epoch observation values (Epoch: 2026-09-22T16:59:51.910Z)
Latitude
-0.00005°
Longitude
105.14777°
Altitude
1,220.419 km
Speed
7.244 km/s
True Right ascension
00h 06m 44s
True Declination
0° 00' 00"
Sunlit
Object was in full shadow at epoch
Visualization orbit readout
Latitude
Unknown
Longitude
Unknown
Altitude
Unknown
Speed
Unknown
Apparent Right ascension
Unknown
Apparent Declination
Unknown
Sunlit
N/A
Visualization observer readout
Local Sidereal Time
19:54:20
Azimuth
Unknown
Elevation
Unknown
Doppler factor
Unknown
Orbital elements
Apogee altitude
1,216.35 km
Perigee altitude
1,213.242 km
Semi-major axis
7,592.933 km
Eccentricity
0.0002
Inclination
87.8974°
RAAN
1.6839°
Arg. of periapsis
84.6695°
True anomaly
275.44325°
Mean anomaly
275.4666°
Eccentric anomaly
275.45492°
Mean motion
3.28042 °/min
Orbital period
109.74 mins
BSTAR
0.00064555
Loading maneuver chart data...
Computing Atmospheric mass density...
Loading historical data...
Loading historical data...
Loading historical data...
Loading historical data...
Loading historical data...
Loading historical data...
Loading historical data...

Documentation

Showing up to 5 results
|